Location: Altamira
(10.5079°N, 66.8544°W)
Time: 17:57:56
(UTC+00:00)

SPOT 1/Viking Rocket - Pass Details

Date: 13 December 2025
Orbit: 772 x 790 km, 98.2° (Epoch: 14 January)

Event Time Altitude Azimuth Distance (km) Brightness Sun altitude
Rises 23:00:09 0° 167° (SSE) 3,269 6.9 -12.8°
Reaches altitude 10° 23:02:28 10° 166° (SSE) 2,343 6.1 -13.3°
Maximum altitude 23:07:38 86° 79° (E) 793 3.5 -14.5°
Drops below altitude 10° 23:12:50 10° 349° (N) 2,346 5.9 -15.7°
Sets 23:15:09 0° 349° (N) 3,274 6.7 -16.2°
